Weather in Fuzhou

China     26°00′49″N   119°19′05″E
temp.,
°C
wind,
m/s
gust,
m/s
humid.,
%
clouds,
%
prec.,
mm/h
press.,
hPa
HPBL,
m
7 may, fri
fri723:00+19sse1182100 0.0 101533
02:00+18wnw0085100 0.0 101324
05:00+19wnw1185100 0.0 101320
08:00+23w0172100 0.0 1014263
11:00+29ene0256100 0.0 1013885
14:00+30ene1157100 0.4 1010916
17:00+23e2388100 1.9 1011125
20:00+21ene1197100 7.4 1013163
8 may, sat
sat823:00+20ne0198100 5.0 1013116
02:00+21s0198100 7.0 101291
05:00+21sw1198100 2.4 101169
08:00+21sse129892 5.1 1012135
11:00+26s0278100 0.5 1011709
14:00+25e1182100 0.8 1008149
17:00+23ese1196100 3.6 100833
20:00+22se1198100 5.9 101029
9 may, sun
sun923:00+22sse1399100 3.8 1010108
02:00+21s119996 3.9 100945
05:00+21wnw1198100 0.0 100913
08:00+23w1191100 0.1 1010217
11:00+28ne017271 0.1 1010827
14:00+29s2270100 1.6 1007954
17:00+26s1186100 1.5 1006128
20:00+23s1197100 6.9 100948
10 may, mon
mon1023:00+23sse1196100 0.9 100933
02:00+22sse0196100 0.9 100712
05:00+21sw1196100 0.0 100713
08:00+24ssw0187100 0.1 1008286
11:00+30se135981 0.0 10071087
14:00+33s4548100 0.0 10041694
17:00+30sse35625 0.1 1003500
20:00+24s228462 0.4 100565
11 may, tue
tue1123:00+22wsw0186100 0.0 100731
02:00+21ssw1188100 0.0 100535
05:00+21ssw118861 0.0 100520
08:00+24sse117338 0.0 1007302
11:00+31sse145034 0.3 10061062
14:00+34ssw3743100 0.3 10022033
17:00+28sse2376100 0.3 1003139
20:00+23ne2395100 6.4 1006192